This is the latest recevied weather packets stored in our database for station/object EA5JUX. If no packets are shown the sender has not sent any weather packets the latest 10 day(s).
| Time | Temp. | Humidity | Pressure | Rain* | Wind** | Luminosity | Snow |
|---|---|---|---|---|---|---|---|
| 1788165734 | 26.67° C | 72% | 1017.1 hPa | 0 mm | - | - | - |
| 1788165449 | 26.11° C | 73% | 1017 hPa | 0 mm | - | - | - |
| 1788165142 | 26.67° C | 73% | 1016.9 hPa | 0 mm | - | - | - |
| 1788164834 | 26.11° C | 73% | 1017.1 hPa | 0 mm | - | - | - |
| 1788164551 | 26.11° C | 73% | 1016.7 hPa | 0 mm | - | - | - |
| 1788164234 | 26.11° C | 72% | 1016.7 hPa | 0 mm | - | - | - |
| 1788163934 | 26.11° C | 72% | 1016.8 hPa | 0 mm | - | - | - |
| 1788163635 | 26.67° C | 71% | 1016.6 hPa | 0 mm | - | - | - |
| 1788163334 | 26.11° C | 72% | 1016.7 hPa | 0 mm | - | - | - |
| 1788163034 | 26.67° C | 72% | 1016.6 hPa | 0 mm | - | - | - |
| 1788162734 | 26.11° C | 73% | 1016.6 hPa | 0 mm | - | - | - |
| 1788162434 | 26.11° C | 74% | 1016.5 hPa | 0 mm | - | - | - |
| 1788162134 | 25.56° C | 75% | 1016.5 hPa | 0 mm | - | - | - |
| 1788161834 | 25° C | 75% | 1016.8 hPa | 0 mm | - | - | - |
| 1788161534 | 25.56° C | 76% | 1016.4 hPa | 0 mm | - | - | - |
| 1788161234 | 25° C | 77% | 1016.5 hPa | 0 mm | - | - | - |
| 1788160934 | 25° C | 78% | 1016.5 hPa | 0 mm | - | - | - |
| 1788160634 | 24.44° C | 80% | 1016.3 hPa | 0 mm | - | - | - |
| 1788160334 | 23.89° C | 81% | 1016 hPa | 0 mm | - | - | - |
| 1788160035 | 23.89° C | 82% | 1016.1 hPa | 0 mm | - | - | - |
| 1788159742 | 24.44° C | 82% | 1016 hPa | 0 mm | - | - | - |
| 1788159434 | 23.33° C | 83% | 1016.2 hPa | 0 mm | - | - | - |
| 1788159152 | 22.78° C | 84% | 1016.2 hPa | 0 mm | - | - | - |
| 1788158834 | 22.22° C | 85% | 1016 hPa | 0 mm | - | - | - |
| 1788158534 | 22.22° C | 85% | 1015.9 hPa | 0 mm | - | - | - |
* Rain latest hour (hover to see other rain measurements)
** Current wind speed in m/s (hover to see current wind gust speed)